[[{"header":{"parameterUnit":"m.s-1","parameterCategory":1,"la1":30.2991,"la2":30.254,"lo1":-89.0895,"lo2":-89.0444,"dy":0.0017,"dx":0.0017,"nx":28,"ny":28,"refTime":"2023-10-07T03:00:00:Z","depth":0,"parameterNumber":2,"parameterNumberName":"U-component_of_WINDS"},"data":[0,0,0,0,0,0,0,0,0,0,0,0,0,0,0,0,0,0,0,0,0,0,0,0,0,0,0,0,0,0,0,0,0,0,0,0,0,0,0,0,0,0,0,0,0,0,0,0,0,0,0,0,0,0,0,0,0,0,-0.7912,-0.7912,0,-0.7876,-0.7875,-0.7875,-0.7825,-0.7824,-0.7823,-0.7822,-0.7786,-0.7785,-0.7785,0,0,0,0,0,0,0,0,0,0,0,0,0,-0.7937,-0.7937,-0.7912,-0.7912,-0.7911,-0.7876,-0.7875,-0.7875,-0.7825,-0.7824,-0.7823,-0.7822,-0.7786,-0.7785,-0.7785,0,0,0,0,0,0,0,0,0,0,0,0,0,-0.7916,-0.7937,-0.7912,-0.7882,-0.7879,-0.7876,-0.7875,-0.7875,-0.7825,-0.7824,-0.7823,-0.7821,-0.7786,-0.7785,-0.7785,-0.7809,0,0,-0.7784,-0.7784,0,0,0,0,0,0,0,0,-0.7917,-0.7915,-0.7887,-0.7884,-0.7881,-0.7854,-0.7871,-0.7853,-0.7826,-0.7846,-0.7822,-0.7821,-0.7809,-0.7807,-0.7803,-0.7807,-0.7806,-0.7784,-0.7784,-0.7784,-0.7784,0,0,0,0,0,0,0,-0.7919,-0.7916,-0.7898,-0.7887,-0.7883,-0.787,-0.7866,-0.7867,-0.7835,-0.7844,-0.784,-0.7836,-0.7807,-0.7803,-0.7802,-0.7805,-0.7784,-0.7784,-0.7784,-0.7784,-0.7825,-0.7827,0,0,0,0,0,0,-0.7925,-0.7918,-0.7899,-0.7897,-0.7896,-0.7871,-0.7866,-0.7864,-0.7835,-0.7829,-0.7838,-0.7834,-0.7804,-0.7802,-0.78,-0.7826,-0.7784,-0.7784,-0.7784,-0.7824,-0.7826,-0.7827,0,0,0,0,0,0,-0.7926,-0.7924,-0.79,-0.7906,-0.7902,-0.7871,-0.787,-0.7864,-0.786,-0.783,-0.7824,-0.784,-0.7803,-0.7801,-0.7807,-0.7824,-0.7784,-0.7783,-0.7823,-0.7825,-0.7826,-0.7877,0,0,0,0,0,0,-0.7927,-0.7924,-0.7933,-0.7907,-0.7902,-0.7908,-0.7871,-0.7864,-0.7859,-0.7854,-0.783,-0.7825,-0.7802,-0.7807,-0.7807,-0.7823,-0.7783,-0.7821,-0.7823,-0.7826,-0.7874,-0.7881,-0.7886,0,0,0,0,0,-0.7928,-0.7949,-0.7934,-0.7932,-0.7913,-0.7909,-0.7907,-0.788,-0.7861,-0.7869,-0.785,-0.7826,-0.7822,-0.7809,-0.7807,-0.7823,-0.782,-0.7823,-0.7826,-0.7871,-0.7879,-0.7886,0,0,0,0,0,0,-0.7979,-0.7946,-0.7928,-0.7942,-0.7929,-0.7901,-0.7911,-0.7889,-0.7881,-0.7877,-0.7844,-0.7839,-0.7849,-0.7836,-0.7822,-0.7844,-0.7817,-0.782,-0.7852,-0.786,-0.7866,-0.7869,-0.7783,0,0,0,0,0,-0.7992,-0.7992,-0.7962,-0.7978,-0.7972,-0.7943,-0.794,-0.792,-0.7905,-0.7899,-0.7881,-0.7867,-0.7862,-0.786,-0.7854,-0.7871,-0.7865,-0.7881,-0.7888,-0.7893,-0.7896,-0.7903,-0.791,-0.7836,-0.7836,-0.7836,0,0,-0.8019,-0.8001,-0.8003,-0.7987,-0.7975,-0.7975,-0.7938,-0.7941,-0.794,-0.79,-0.7904,-0.789,-0.7872,-0.7884,-0.7888,-0.7874,-0.7914,-0.7896,-0.7901,-0.7901,-0.7907,-0.7914,-0.792,-0.7838,-0.7838,-0.7838,0,0,-0.8069,-0.8055,-0.8065,-0.8053,-0.8034,-0.8014,-0.8017,-0.7992,-0.7981,-0.7984,-0.7954,-0.7952,-0.7945,-0.7934,-0.7927,-0.797,-0.7947,-0.7969,-0.8002,-0.8009,-0.8015,-0.802,-0.8035,-0.8041,-0.7971,-0.7972,-0.7972,0,-0.8105,-0.8104,-0.8074,-0.8078,-0.8071,-0.8034,-0.8044,-0.8033,-0.8014,-0.801,-0.7994,-0.7984,-0.7969,-0.7977,-0.7987,-0.7983,-0.7984,-0.7972,-0.8016,-0.8021,-0.8025,-0.8039,-0.8045,-0.7974,-0.7974,-0.7974,-0.7974,0,-0.8149,-0.8149,-0.816,-0.8142,-0.8136,-0.8144,-0.8114,-0.8112,-0.8092,-0.8073,-0.8077,-0.8058,-0.8047,-0.8047,-0.8028,-0.8052,-0.8044,-0.8023,-0.7995,-0.8036,-0.8048,-0.8053,-0.7978,-0.7977,-0.7977,-0.7976,0,0,-0.8232,-0.8195,-0.82,-0.8191,-0.8166,-0.8165,-0.817,-0.8159,-0.8158,-0.8145,-0.8148,-0.8142,-0.8121,-0.8114,-0.8092,-0.8099,-0.8133,-0.8076,-0.8075,-0.8088,-0.8158,-0.8175,-0.8181,-0.8117,-0.8118,-0.8119,-0.8159,0,-0.8277,-0.8284,-0.8256,-0.8269,-0.8269,-0.8232,-0.8235,-0.822,-0.8203,-0.8199,-0.8179,-0.8175,-0.8149,-0.8144,-0.8148,-0.8128,-0.8147,-0.8125,-0.812,-0.812,-0.8126,-0.8188,-0.8206,-0.8245,-0.8164,-0.8165,-0.8165,0,-0.8331,-0.8321,-0.8335,-0.8308,-0.8306,-0.8311,-0.8298,-0.8295,-0.8276,-0.8263,-0.8253,-0.8228,-0.823,-0.8203,-0.8204,-0.819,-0.8186,-0.8175,-0.8176,-0.8175,-0.8146,-0.8189,-0.8257,-0.8263,-0.8173,-0.8172,-0.8172,0,-0.8391,-0.838,-0.8386,-0.8379,-0.8349,-0.8352,-0.8339,-0.832,-0.8314,-0.8303,-0.8299,-0.8287,-0.8282,-0.8273,-0.8245,-0.8228,-0.825,-0.822,-0.8239,-0.8239,-0.8246,-0.8246,-0.8315,-0.8242,-0.8242,-0.8242,-0.8242,0,-0.8445,-0.8455,-0.8412,-0.8417,-0.8426,-0.8393,-0.8403,-0.8386,-0.8369,-0.8369,-0.8335,-0.8336,-0.8298,-0.8294,-0.8272,-0.8277,-0.8274,-0.8263,-0.8257,-0.8267,-0.8268,-0.8264,-0.8261,-0.8244,-0.8243,-0.8243,-0.8243,0,-0.8514,-0.8486,-0.849,-0.846,-0.8453,-0.8461,-0.8435,-0.8437,-0.8416,-0.8416,-0.8414,-0.8382,-0.8375,-0.8346,-0.8333,-0.8318,-0.833,-0.8318,-0.8336,-0.8333,-0.8352,-0.8351,-0.8422,-0.8429,-0.8352,-0.8352,-0.8353,0,-0.8551,-0.8557,-0.8527,-0.8525,-0.8513,-0.851,-0.8504,-0.847,-0.8466,-0.8444,-0.8449,-0.8439,-0.843,-0.8421,-0.8396,-0.8385,-0.8373,-0.8398,-0.8371,-0.838,-0.8373,-0.8374,-0.8374,-0.8404,-0.8405,-0.8406,-0.8407,0,-0.8619,-0.8604,-0.8597,-0.8585,-0.8579,-0.8568,-0.8555,-0.8554,-0.8517,-0.8513,-0.8506,-0.8498,-0.8484,-0.8474,-0.8459,-0.8445,-0.842,-0.8415,-0.8419,-0.8429,-0.8439,-0.8434,-0.8353,-0.8414,-0.8413,-0.8413,-0.8412,-0.8412,-0.8673,-0.8677,-0.8656,-0.8649,-0.8635,-0.8623,-0.8624,-0.8602,-0.8596,-0.8581,-0.8562,-0.8557,-0.8536,-0.8513,-0.85,-0.8495,-0.8481,-0.8487,-0.8488,-0.849,-0.8495,-0.8439,-0.8492,-0.8492,-0.8492,-0.8491,-0.8491,0,-0.874,-0.8724,-0.8718,-0.87,-0.8694,-0.867,-0.8654,-0.865,-0.8646,-0.8629,-0.8621,-0.8611,-0.8602,-0.8575,-0.8563,-0.8564,-0.8552,-0.8561,-0.8561,-0.8559,-0.8508,-0.8506,-0.8571,-0.8571,-0.8571,-0.8571,-0.8571,-0.8571,-0.8774,-0.8779,-0.8762,-0.8759,-0.8743,-0.8738,-0.8731,-0.8719,-0.8705,-0.8696,-0.8688,-0.8671,-0.8649,-0.8635,-0.8624,-0.8617,-0.8614,-0.8628,-0.8616,-0.857,-0.8562,-0.8555,-0.8553,-0.8627,-0.8627,-0.8667,-0.8667,-0.8668]},{"header":{"parameterUnit":"m.s-1","parameterCategory":1,"la1":30.2991,"la2":30.254,"lo1":-89.0895,"lo2":-89.0444,"dy":0.0017,"dx":0.0017,"nx":28,"ny":28,"refTime":"2023-10-07T03:00:00:Z","depth":0,"parameterNumber":3,"parameterNumberName":"V-component_of_WINDS"},"data":[0,0,0,0,0,0,0,0,0,0,0,0,0,0,0,0,0,0,0,0,0,0,0,0,0,0,0,0,0,0,0,0,0,0,0,0,0,0,0,0,0,0,0,0,0,0,0,0,0,0,0,0,0,0,0,0,0,0,-6.9195,-6.9196,0,-6.9273,-6.9273,-6.9274,-6.9192,-6.9189,-6.9186,-6.9183,-6.9257,-6.9261,-6.9266,0,0,0,0,0,0,0,0,0,0,0,0,0,-6.897,-6.8975,-6.9195,-6.9196,-6.9197,-6.9272,-6.9273,-6.9275,-6.9193,-6.9189,-6.9185,-6.9182,-6.9255,-6.9261,-6.9267,0,0,0,0,0,0,0,0,0,0,0,0,0,-6.906,-6.8976,-6.9194,-6.9165,-6.9163,-6.9272,-6.9274,-6.9275,-6.9194,-6.9189,-6.9184,-6.918,-6.9253,-6.926,-6.9268,-6.9407,0,0,-6.929,-6.9293,0,0,0,0,0,0,0,0,-6.9055,-6.9068,-6.9169,-6.9167,-6.9166,-6.9218,-6.9221,-6.9319,-6.9195,-6.9182,-6.9183,-6.9177,-6.9247,-6.9255,-6.928,-6.9411,-6.9414,-6.9291,-6.9295,-6.9298,-6.93,0,0,0,0,0,0,0,-6.9048,-6.9064,-6.9225,-6.917,-6.9168,-6.9146,-6.9154,-6.9239,-6.924,-6.9183,-6.9177,-6.9188,-6.9245,-6.9273,-6.9281,-6.9415,-6.929,-6.9297,-6.9302,-6.9304,-6.9665,-6.967,0,0,0,0,0,0,-6.9046,-6.9059,-6.9223,-6.9228,-6.9098,-6.9154,-6.9163,-6.9206,-6.9239,-6.9239,-6.9192,-6.9184,-6.9262,-6.9272,-6.9283,-6.9449,-6.9298,-6.9305,-6.9309,-6.966,-6.9667,-6.9672,0,0,0,0,0,0,-6.9042,-6.9062,-6.922,-6.9142,-6.9161,-6.9163,-6.9212,-6.921,-6.9237,-6.9246,-6.9245,-6.922,-6.9259,-6.9273,-6.9378,-6.9451,-6.9308,-6.9315,-6.9654,-6.9662,-6.9669,-6.9783,0,0,0,0,0,0,-6.9036,-6.9061,-6.9115,-6.9144,-6.9165,-6.9315,-6.9217,-6.9215,-6.9251,-6.9241,-6.9272,-6.9272,-6.9256,-6.9367,-6.9385,-6.9458,-6.9321,-6.9648,-6.9658,-6.9667,-6.9773,-6.9794,-6.9812,0,0,0,0,0,-6.9028,-6.9142,-6.9118,-6.9138,-6.9233,-6.9319,-6.9331,-6.9312,-6.9257,-6.9311,-6.9316,-6.9271,-6.944,-6.9379,-6.9398,-6.9475,-6.9643,-6.9655,-6.9666,-6.9764,-6.979,-6.9812,0,0,0,0,0,0,-6.9119,-6.9146,-6.9119,-6.9246,-6.9282,-6.9305,-6.9373,-6.934,-6.939,-6.9378,-6.9351,-6.9359,-6.9471,-6.9483,-6.9414,-6.9612,-6.9532,-6.9548,-6.96,-6.9625,-6.9644,-6.9638,-6.9327,0,0,0,0,0,-6.9155,-6.9224,-6.9243,-6.9353,-6.9373,-6.937,-6.9407,-6.939,-6.9424,-6.9438,-6.9451,-6.9484,-6.9545,-6.9585,-6.9641,-6.9774,-6.978,-6.9837,-6.9856,-6.9872,-6.9886,-6.9958,-6.9984,-6.9711,-6.971,-6.971,0,0,-6.9227,-6.925,-6.9296,-6.9372,-6.9397,-6.9469,-6.9383,-6.9461,-6.9514,-6.9449,-6.955,-6.9561,-6.9596,-6.9716,-6.977,-6.973,-6.9963,-6.9887,-6.99,-6.9905,-6.9973,-6.9999,-7.0022,-6.9718,-6.9717,-6.9716,0,0,-6.9397,-6.9422,-6.9517,-6.9545,-6.9585,-6.9583,-6.9606,-6.9636,-6.9641,-6.9742,-6.9696,-6.9756,-6.9861,-6.9889,-6.9916,-7.0098,-7.0059,-7.0117,-7.0219,-7.0289,-7.0311,-7.033,-7.0395,-7.0419,-7.0131,-7.0132,-7.0132,0,-6.9482,-6.9589,-6.957,-6.9653,-6.9688,-6.9635,-6.9731,-6.9758,-6.9814,-6.9838,-6.9793,-6.9925,-6.9945,-7.0071,-7.0116,-7.014,-7.0165,-7.0113,-7.031,-7.0328,-7.0346,-7.0408,-7.0432,-7.0138,-7.0138,-7.0137,-7.0136,0,-6.9692,-6.9767,-6.9839,-6.9898,-6.994,-7.0029,-7.0022,-7.0067,-7.0047,-7.0049,-7.0153,-7.0175,-7.0236,-7.0264,-7.0243,-7.0388,-7.0362,-7.0314,-7.0233,-7.0379,-7.0437,-7.046,-7.0148,-7.0146,-7.0144,-7.0142,0,0,-6.992,-6.9968,-6.9995,-7.0021,-7.0063,-7.0119,-7.0206,-7.0267,-7.0307,-7.0347,-7.0418,-7.0509,-7.0465,-7.0497,-7.0479,-7.0541,-7.0684,-7.0485,-7.0485,-7.0522,-7.0845,-7.0881,-7.0909,-7.0658,-7.0663,-7.0666,-7.0842,0,-7.0091,-7.0244,-7.0229,-7.0373,-7.0442,-7.0394,-7.0469,-7.0502,-7.0506,-7.0564,-7.0568,-7.0633,-7.0571,-7.059,-7.0649,-7.0655,-7.0749,-7.0641,-7.0723,-7.0727,-7.0717,-7.0939,-7.0977,-7.1142,-7.0864,-7.0868,-7.0871,0,-7.0311,-7.0362,-7.0514,-7.0547,-7.0575,-7.0643,-7.0699,-7.0755,-7.0791,-7.079,-7.0827,-7.0798,-7.0884,-7.0802,-7.0919,-7.0846,-7.0878,-7.0887,-7.0892,-7.0899,-7.0808,-7.0952,-7.1194,-7.1219,-7.0906,-7.0903,-7.0901,0,-7.0463,-7.057,-7.0675,-7.0699,-7.0738,-7.0788,-7.0806,-7.0837,-7.0876,-7.0924,-7.0948,-7.1004,-7.1035,-7.1079,-7.1066,-7.1008,-7.1186,-7.1103,-7.1187,-7.1187,-7.1226,-7.1224,-7.1477,-7.1247,-7.1247,-7.1247,-7.1246,0,-7.0656,-7.0751,-7.0744,-7.0809,-7.0913,-7.0895,-7.0998,-7.101,-7.1039,-7.1104,-7.1064,-7.1126,-7.1105,-7.1165,-7.1156,-7.1254,-7.1268,-7.1269,-7.1265,-7.1273,-7.1273,-7.1294,-7.1282,-7.1253,-7.1252,-7.125,-7.1249,0,-7.0843,-7.0842,-7.0954,-7.0984,-7.0993,-7.1069,-7.1094,-7.1154,-7.1156,-7.1239,-7.1257,-7.1259,-7.1328,-7.132,-7.1396,-7.1389,-7.1512,-7.1494,-7.1501,-7.1497,-7.1582,-7.1574,-7.1857,-7.1894,-7.164,-7.1643,-7.1645,0,-7.0966,-7.1039,-7.1077,-7.1119,-7.1142,-7.121,-7.1249,-7.1234,-7.1276,-7.1324,-7.1378,-7.1444,-7.1495,-7.1607,-7.1615,-7.1673,-7.1656,-7.1751,-7.1664,-7.167,-7.1658,-7.1654,-7.1661,-7.1768,-7.1771,-7.1774,-7.1776,0,-7.1185,-7.1182,-7.1242,-7.1303,-7.1352,-7.1398,-7.144,-7.1476,-7.1464,-7.1514,-7.1585,-7.1626,-7.1705,-7.177,-7.1825,-7.1842,-7.1807,-7.1803,-7.1826,-7.1834,-7.1835,-7.1836,-7.1548,-7.1797,-7.1794,-7.1793,-7.1792,-7.1791,-7.1344,-7.1407,-7.1445,-7.1513,-7.1543,-7.1584,-7.1643,-7.1653,-7.1713,-7.1778,-7.1765,-7.1845,-7.1879,-7.195,-7.1972,-7.2034,-7.1999,-7.2031,-7.204,-7.2048,-7.2059,-7.1826,-7.2044,-7.2043,-7.2042,-7.2042,-7.2041,0,-7.1561,-7.1584,-7.1647,-7.1709,-7.1763,-7.1727,-7.1772,-7.1819,-7.1891,-7.1927,-7.198,-7.2062,-7.2125,-7.2139,-7.2199,-7.2246,-7.2231,-7.2262,-7.2258,-7.2263,-7.2086,-7.2061,-7.2273,-7.2273,-7.2273,-7.2273,-7.2273,-7.2273,-7.1681,-7.1785,-7.1787,-7.1906,-7.1926,-7.2007,-7.2036,-7.2073,-7.2102,-7.2196,-7.225,-7.2259,-7.2286,-7.2348,-7.2405,-7.2407,-7.2431,-7.2468,-7.2464,-7.2298,-7.2275,-7.2253,-7.2229,-7.2474,-7.2474,-7.2636,-7.2637,-7.2639]}]]